TimeEDT,TemperatureF,Dew PointF,Humidity,Sea Level PressureIn,VisibilityMPH,Wind Direction,Wind SpeedMPH,Gust SpeedMPH,PrecipitationIn,Events,Conditions,WindDirDegrees,DateUTC
12:54 AM,37.9,21.9,53,30.05,10.0,Calm,Calm,-,N/A,,Clear,0,2014-03-22 04:54:00
1:54 AM,35.1,21.9,59,30.04,10.0,Calm,Calm,-,N/A,,Clear,0,2014-03-22 05:54:00
2:54 AM,35.1,24.1,64,30.02,10.0,Calm,Calm,-,N/A,,Clear,0,2014-03-22 06:54:00
3:54 AM,36.0,25.0,64,29.99,10.0,East,3.5,-,N/A,,Clear,80,2014-03-22 07:54:00
4:54 AM,37.9,28.9,70,29.97,10.0,ENE,3.5,-,N/A,,Clear,70,2014-03-22 08:54:00
5:54 AM,36.0,28.0,73,29.92,10.0,NE,5.8,-,N/A,,Clear,50,2014-03-22 09:54:00
6:54 AM,37.9,28.9,70,29.89,10.0,Calm,Calm,-,N/A,,Clear,0,2014-03-22 10:54:00
7:54 AM,42.1,30.9,65,29.86,10.0,SSE,3.5,-,N/A,,Clear,160,2014-03-22 11:54:00
8:54 AM,46.0,34.0,63,29.85,10.0,Calm,Calm,-,N/A,,Clear,0,2014-03-22 12:54:00
9:54 AM,53.1,35.1,50,29.83,10.0,SW,13.8,23.0,N/A,,Clear,220,2014-03-22 13:54:00
10:54 AM,57.0,34.0,42,29.82,10.0,WSW,20.7,26.5,N/A,,Clear,240,2014-03-22 14:54:00
11:54 AM,59.0,34.0,39,29.82,10.0,SW,12.7,21.9,N/A,,Clear,230,2014-03-22 15:54:00
12:54 PM,62.1,32.0,32,29.82,10.0,WSW,15.0,23.0,N/A,,Clear,250,2014-03-22 16:54:00
1:54 PM,64.0,32.0,30,29.82,10.0,West,13.8,21.9,N/A,,Clear,270,2014-03-22 17:54:00
2:54 PM,66.0,30.9,27,29.81,10.0,West,15.0,-,N/A,,Clear,260,2014-03-22 18:54:00
3:54 PM,66.9,28.9,24,29.81,10.0,West,19.6,33.4,N/A,,Scattered Clouds,280,2014-03-22 19:54:00
4:54 PM,68.0,24.1,19,29.83,10.0,WNW,16.1,28.8,N/A,,Partly Cloudy,290,2014-03-22 20:54:00
5:54 PM,66.0,24.1,20,29.86,10.0,WNW,15.0,21.9,N/A,,Clear,300,2014-03-22 21:54:00
6:54 PM,62.1,21.9,21,29.90,10.0,WNW,13.8,-,N/A,,Clear,290,2014-03-22 22:54:00
7:54 PM,59.0,23.0,25,29.93,10.0,WNW,5.8,-,N/A,,Clear,290,2014-03-22 23:54:00
8:54 PM,57.0,24.1,28,29.95,10.0,West,6.9,-,N/A,,Clear,280,2014-03-23 00:54:00
9:54 PM,54.0,24.1,31,29.96,10.0,NNW,12.7,-,N/A,,Clear,330,2014-03-23 01:54:00
10:54 PM,53.1,23.0,31,29.99,10.0,NNW,8.1,-,N/A,,Clear,330,2014-03-23 02:54:00
11:54 PM,48.0,24.1,39,30.01,10.0,North,6.9,-,N/A,,Clear,360,2014-03-23 03:54:00